BEIDOU IGSO-7           
1 43539U 18057A   19258.03490025 -.00000151  00000-0  00000+0 0  9990
2 43539  55.0401 184.7848 0022964 200.3231  91.3004  1.00250486  4417
CZ-3A R/B               
1 43540U 18057B   19237.82999620 -.00000148  00000-0  10000-3 0  9992
2 43540  56.1459  88.6847 6933639 233.1565 133.6890  2.56559368  9674